Weather Roundup
Issued by NWS

Home | Current Version | Previous Version | Graphics & Text | Print | Product List | Glossary Off
Versions: 1 2 3 4 5 6 7 8 9 10 11 12 13 14 15 16 17 18 19 20 21 22 23 24 25 26 27 28 29 30 31 32 33 34 35 36 37 38 39 40 41 42 43 44 45 46 47 48 49 50

000
NZUS93 KARX 200510
HRRWXR

CURRENT HOURLY OBSERVATIONS ACROSS
MUCH OF THE UPPER MISSISSIPPI VALLEY
NATIONAL WEATHER SERVICE LA CROSSE WI
1100 PM CST SUN FEB 19 2017


...SOUTHEAST MINNESOTA...


CITY           SKY/WX    TMP DP  RH WIND       PRES   REMARKS
ROCHESTER      CLOUDY    47  39  74 SE15      29.93S
ROCHESTER/MAYO FAIR      50  39  65 SE12      29.93S
WINONA         CLOUDY    48  37  66 CALM      29.97R
AUSTIN         CLOUDY    48  41  76 SE8       29.91S
ALBERT LEA     CLOUDY    48  43  81 SE12      29.89S
DODGE CENTER   CLOUDY    45  39  81 SE14      29.91S
PRESTON        CLOUDY    48  37  65 SE8       29.94F
OWATONNA       CLOUDY    50  41  71 SE13      29.88F
FARIBAULT      CLOUDY    52  43  71 SE18      29.87F
$$

...ELSEWHERE IN MINNESOTA...


CITY           SKY/WX    TMP DP  RH WIND       PRES   REMARKS
MINNEAPOLIS    CLOUDY    50  38  63 SE13      29.87F
INTNL FALLS    CLOUDY    40  28  62 SE12      29.86S WCI  33
DULUTH         PTCLDY    37  30  75 E15       29.93F WCI  28
RED WING       CLOUDY    52  36  54 SE10G16   29.91S
REDWOOD FALLS  MOCLDY    52  46  80 SE16      29.77S
MANKATO          N/A     50  44  80 SE16      29.83F
WORTHINGTON    MOCLDY    53  47  79 S21G26    29.78R
FAIRMONT       CLOUDY    52  46  80 SE14      29.83S
$$

...SOUTHWEST WISCONSIN...


CITY           SKY/WX    TMP DP  RH WIND       PRES   REMARKS
LA CROSSE      CLOUDY    51  37  58 SE7       29.98R
PRAIRIE DU CHI PTCLDY    51  36  55 E6        29.99S
BOSCOBEL       CLOUDY    48  36  63 CALM      30.01F
LONE ROCK      CLOUDY    44  36  73 E8        30.04S
PLATTEVILLE    CLOUDY    46  37  69 E10       30.02F
FORT MC COY    CLOUDY    47  38  69 E7        30.01S
CAMP DOUGLAS   CLOUDY    39  34  81 E8        30.03S WCI  33
MAUSTON-NEW LI CLOUDY    43  36  74 SE5       30.03S
VIROQUA        FAIR      49  37  61 CALM      30.00S
WIS DELLS      CLOUDY    50  36  59 CALM      30.05S
$$

...ELSEWHERE IN WISCONSIN...


CITY           SKY/WX    TMP DP  RH WIND       PRES   REMARKS
MILWAUKEE      CLOUDY    39  32  76 CALM      30.13R
MADISON        CLOUDY    47  34  60 SE3       30.06S
GREEN BAY      CLOUDY    36  32  85 E5        30.13R WCI  32
EAU CLAIRE     CLOUDY    50  35  56 SE9       29.95F
BLACK RVR FLS  FAIR      37  30  77 CALM      30.00S
MEDFORD        MOCLDY    44  33  65 SE7       30.03S
WAUSAU         PTCLDY    41  33  73 E8        30.06R
WIS RAPIDS     PTCLDY    44  35  70 E8        30.06S
MARSHFIELD     PTCLDY    44  33  65 E8        30.03S
RICE LAKE      CLOUDY    46  32  58 SE10      29.95F
$$

...NORTHEAST IOWA...


CITY           SKY/WX    TMP DP  RH WIND       PRES   REMARKS
WATERLOO       CLOUDY    51  42  71 SE9       29.94S
DUBUQUE        CLOUDY    50  41  71 SE12      30.00F
DECORAH        CLOUDY    50  39  66 SE13      29.95F
MASON CITY     CLOUDY    48  43  82 SE13      29.91R
CHARLES CITY   CLOUDY    50  45  81 SE14      29.93S
OELWEIN        PTCLDY    46  43  87 SE10      29.97S
$$

...ELSEWHERE IN IOWA...


CITY           SKY/WX    TMP DP  RH WIND       PRES   REMARKS
DES MOINES     MOCLDY    59  46  62 SE10      29.89S
IOWA CITY      PTCLDY    50  43  77 SE6       29.99S
FORT DODGE     CLOUDY    55  45  67 SE9       29.87S
MARSHALLTOWN   MOCLDY    52  46  80 SE9       29.91R
CEDAR RAPIDS   CLOUDY    55  47  74 SE10      29.95S
$$

...NORTHERN ILLINOIS...


CITY           SKY/WX    TMP DP  RH WIND       PRES   REMARKS
CHICAGO-OHARE  CLOUDY    46  30  53 SE3       30.11R
CHICAGO-MIDWAY MOCLDY    49  33  54 SE5       30.11R
MOLINE         CLOUDY    56  45  66 S7        30.00F
ROCKFORD       PTCLDY    48  39  71 SE3       30.09S
PEORIA         CLOUDY    53  49  86 SE6       30.07S
$$

NOTE: "FAIR" INDICATES FEW OR NO CLOUDS BELOW 12,000 FEET WITH NO
SIGNIFICANT WEATHER AND/OR OBSTRUCTIONS TO VISIBILITY. WIND
SPEEDS ARE IN MILES-PER-HOUR.




USA.gov is the U.S. government's official web portal to all federal, state and local government web resources and services.